Preview of NWS' New Version of Forecast
This preview is not operational and should not be used for support decisions.

Regional Weather Roundup (RWR)

Issued by Philadelphia/Mt Holly (PHI)

                            
000
ASUS41 KPHI 180512
RWRPHI

REGIONAL WEATHER ROUNDUP
NATIONAL WEATHER SERVICE MOUNT HOLLY NJ
1200 AM EST FRI JAN 18 2019

NOTE:  "FAIR" INDICATES FEW OR NO CLOUDS BELOW 12,000 FEET WITH NO
SIGNIFICANT WEATHER AND/OR OBSTRUCTIONS TO VISIBILITY.

 * = STATION DOES NOT REPORT PRECIPITATION (E.G. RAIN, SNOW, ETC.) 
        OR FOG.

NJZ015>026-180600-
SOUTHERN NEW JERSEY
  
CITY           SKY/WX    TMP DP  RH WIND       PRES   REMARKS
POMONA         CLOUDY    31  25  78 NW3       30.20F                  
WILDWOOD*      CLOUDY    36  27  69 NE5       30.19F WCI  32          
MILLVILLE      CLOUDY    31  24  75 CALM      30.20F                  
WRIGHTSTOWN    LGT SNOW  28  23  80 CALM      30.18F                  
MOUNT HOLLY    LGT SNOW  29  24  82 NW3       30.22F                  
TRENTON        LGT SNOW  28  22  78 NW3       30.21F                  

$$
NJZ001>014-180600-
NORTHERN NEW JERSEY
  
CITY           SKY/WX    TMP DP  RH WIND       PRES   REMARKS
SUSSEX         LGT SNOW  25  23  92 CALM      30.20F VSB 1            
ANDOVER*         N/A     25  21  85 CALM      30.20F                  
MORRISTOWN     LGT SNOW  27  25  93 CALM      30.22F                  
NEWARK         FLURRIES  32  20  61 E5        30.23F WCI  27          
TETERBORO      CLOUDY    32  15  49 NE8       30.23F WCI  25          
CALDWELL       LGT SNOW  28  23  81 CALM      30.24                   
SOMERVILLE     LGT SNOW  28  24  85 N3        30.20F FOG              
ALLAIRE*       LGT RAIN  34  24  67 SE5       30.22F WCI  30          

$$
PAZ043-044-047-054-055-060>062-066>071-180600-
EASTERN PENNSYLVANIA
  
CITY           SKY/WX    TMP DP  RH WIND       PRES   REMARKS
PHILADELPHIA   LGT SNOW  30  26  85 E5        30.22F FOG     WCI  25  
NORTH PHILA    LGT SNOW  31  24  75 CALM      30.23F                  
BLUE BELL*     CLOUDY    28  27  93 CALM      30.22F                  
DOYLESTOWN     LGT SNOW  27  22  81 CALM      30.19F                  
QUAKERTOWN*    MOCLDY    27  23  86 E5        30.19F WCI  21          
PERKASIE*      LGT SNOW  27  25  93 NE3       30.20F                  
POTTSTOWN      LGT SNOW  27  22  81 E5        30.21F WCI  22          
LANCASTER      LGT SNOW  28  24  85 E6        30.18F FOG     WCI  22  
COATESVILLE    LGT SNOW  27  25  93 E6        30.18F WCI  20          
READING        FLURRIES  28  23  81 SE3       30.18F                  
ALLENTOWN      FLURRIES  29  21  72 E6        30.20F WCI  23          
MOUNT POCONO   FLURRIES  19  17  92 E7        30.09F WCI  10          
HAZLETON       CLOUDY   N/A N/A N/A SE5       30.12F                  
LEHIGHTON      CLOUDY    28  19  69 CALM      30.20S                  
WILKES BARRE   CLOUDY    25  11  55 CALM      30.13F                  

$$
DEZALL-MDZ008-012-015-019-020-180600-
DELAWARE AND EASTERN MARYLAND
  
CITY           SKY/WX    TMP DP  RH WIND       PRES   REMARKS
WILMINGTON     FLURRIES  30  26  85 E6        30.22F WCI  24          
DOVER          LGT SNOW  33  31  91 CALM      30.18F FOG              
GEORGETOWN     CLOUDY    37  28  70 CALM      30.18F                  
EASTON         LGT SNOW  33  31  93 NE3       30.21F                  
PATUXENT       MIX PCPN  37  35  92 E6        30.16  WCI  32          
OCEAN CITY     CLOUDY    41  33  73 SE5       30.17F                  
WALLOPS ISLAND CLOUDY    40  33  76 E6        30.16F                  
SALISBURY      CLOUDY    35  31  85 CALM      30.17F                  

$$
PAZ001-021-NYZ056-072-MDZ011-DCZ001-180600-
OTHER NEARBY LOCATIONS
  
CITY           SKY/WX    TMP DP  RH WIND       PRES   REMARKS
HARRISBURG     LGT SNOW  28  25  88 E7        30.17F FOG     WCI  21  
STATE COLLEGE  FLURRIES  27  24  89 SW5       30.07F WCI  22          
WILLIAMSPORT   CLOUDY    26  21  81 E9G17     30.13F WCI  17          
BINGHAMTON     LGT SNOW  19  17  92 S7        30.05F FOG     WCI  10  
NEW YORK CITY  CLOUDY    31  16  54 MISG      30.24F                  
BALTIMORE      LGT SNOW  31  30  96 E6        30.18F VSB 1   WCI  25  
WASHINGTON DC  LGT SNOW  34  31  88 NE3       30.18F VSB 1            

$$